Regional Weather Roundup
Issued by NWS Midland/Odessa, TX

Home | Current Version | Previous Version | Text Only | Print | Product List | Glossary On
Versions: 1 2 3 4 5 6 7 8 9 10 11 12 13 14 15 16 17 18 19 20 21 22 23 24 25 26 27 28 29 30 31 32 33 34 35 36 37 38 39 40 41 42 43 44 45 46 47 48 49 50
000
ASUS44 KMAF 210710
RWRMAF
MIDLAND AREA WEATHER ROUNDUP
NATIONAL WEATHER SERVICE MIDLAND TX
100 AM CST TUE NOV 21 2017

...IN SOUTHWEST TEXAS AND SOUTHEAST NEW MEXICO...

CITY           SKY/WX    TMP DP  RH WIND       PRES   REMARKS
ALPINE         PTCLDY    57  17  21 SW10      30.07S
ANDREWS        FAIR      49  24  37 SW9       29.89S
ARTESIA        CLOUDY    54  18  24 SW14      29.91F
BIG SPRING     CLOUDY    48  33  56 S10       29.90F
CARLSBAD       CLOUDY    60  19  20 W16       29.89F
DRYDEN           N/A     45  34  65 NW7       29.92F
FORT STOCKTON  CLOUDY    55  27  34 SW15      29.91F
GUAD PASS      CLOUDY    50  23  34 W21       30.05F
HOBBS          CLOUDY    50  16  25 NW13G18   29.91R
LAMESA         FAIR      45  30  57 SW9       29.86F WCI  40
MARFA          CLOUDY    40  22  48 SE10      30.06F WCI  33
MIDLAND AIRPK  CLOUDY    52  32  46 SW10      29.89F
MIDLAND INTL   CLOUDY    50  32  50 SW10      29.89F
ODESSA           N/A     48  31  51 S8        29.90F
PECOS          CLOUDY    55  25  31 SW7       29.89F
PRESIDIO       FAIR      49  26  39 NE3       30.03F
SEMINOLE       CLOUDY    50  20  30 W14       29.89S
SNYDER         CLEAR     48  33  56 S8        29.86S
WINK           CLOUDY    42  25  50 E9        29.88F WCI  37
$$
...OTHER STATIONS IN TEXAS...

CITY           SKY/WX    TMP DP  RH WIND       PRES   REMARKS
ABILENE        CLEAR     53  35  50 S15G26    29.84F
AMARILLO       CLOUDY    43  18  36 N9        29.81S WCI  38
AUSTIN         PTCLDY    48  45  89 S3        29.97F
BROWNSVILLE    CLEAR     63  62  97 N3        29.98F
CORPUS CHRISTI CLOUDY    62  55  77 CALM      29.97F
DALLAS FTW     CLOUDY    53  37  54 S9        29.88F
DEL RIO        PTCLDY    52  41  66 E12       29.95F
EL PASO        MOCLDY    65  11  12 CALM      30.03F
HOUSTON INT    PTCLDY    50  47  89 E5        30.00F
LUBBOCK        CLOUDY    47  18  31 W12       29.80F
SAN ANGELO     PTCLDY    54  34  46 SW17      29.89F
SAN ANTONIO    CLOUDY    55  47  74 SW3       29.98F
WACO           CLOUDY    57  48  72 S14       29.93F
WICHITA FALLS  CLOUDY    41  31  67 S8        29.79S WCI  36
$$
...OTHER LOCATIONS IN NEW MEXICO...

CITY           SKY/WX    TMP DP  RH WIND       PRES   REMARKS
ALAMOGORDO     CLOUDY    39  10  30 CALM      30.07S
ALBUQUERQUE    CLOUDY    44   1  16 NW6       30.12S
CANNON AFB     CLOUDY    48   1  14 W9        29.87F
CLOVIS         CLOUDY    46   6  19 W14       29.85F WCI  40
HOLLOMAN AFB   CLOUDY    38  13  34 CALM      30.08F HAZE
ROSWELL        CLOUDY    46  12  25 SW8       29.90F
RUIDOSO        CLOUDY    52   0  11 NW18G29   30.09F
SANTA FE       CLOUDY    43   0  16 N13       30.08F WCI  36
TRUTH OR CONSE   N/A     47  13  25 CALM      30.08F
TUCUMCARI      CLOUDY    48   5  17 CALM      29.84S
$$



USA.gov is the U.S. government's official web portal to all federal, state and local government web resources and services.